User: anonymous   Login
Location: Caltech
(34.1382°N, 118.1253°W)
Time: 14:41:52
(UTC-07:00)
Language:

BREEZE M DEB (TANK) - Orbit

View from above orbital plane
View from above orbital plane
View from above satellite
View from above satellite

Ground track
Ground track

The orbit data is extracted from the following two-line orbital elements,

1 33437U 08057B   16210.30685491  .00000505  00000-0  11259-3 0  9997
2 33437  49.5639 163.2387 4990936 200.1871 129.8194  5.59585288155715
Epoch (UTC): 28 July 2016 07:21:52
Eccentricity: 0.4990936
inclination: 49.5639°
perigee height: 335 km
apogee height: 13712 km
right ascension of ascending node: 163.2387°
argument of perigee: 200.1871°
revolutions per day: 5.59585288
mean anomaly at epoch: 129.8194°
orbit number at epoch: 15571

The dashed part of the orbit path shows where the satellite is in the earth's shadow,  

DLR